Location: Bougoudala
(13.2282°N, 4.9477°W)
Time: 22:48:12
(UTC+00:00)

Cosmos 1153 Rocket - Pass Details

Date: 29 January 2020
Orbit: 953 x 1007 km, 82.9° (Epoch: 19 February)

Event Time Altitude Azimuth Distance (km) Brightness Sun altitude
Rises 19:44:02 0° 176° (S) 3,716 7.7 -20.7°
Reaches altitude 10° 19:46:35 10° 172° (S) 2,771 6.9 -21.3°
Maximum altitude 19:52:53 64° 92° (E) 1,108 4.5 -22.8°
Enters shadow 19:56:33 26° 19° (NNE) 1,856 5.7 -23.6°
